This demonstration page uses our WeatherBlox Daily Observations layout. Learn more.

Hourly Observations for February 28, 2015

Temp ( °F °C ) Dew Point ( °F °C ) Humidity (%) Winds ( mph kmh ) Pressure ( in mb ) Visibility ( mi km ) Precip ( " mm )
12:15 am 00:15 Mostly Cloudy 8 -13.2 2 -16.6 76 76 SSE 9 15 30.53 1034 10 16.0934 0 0
12:35 am 00:35 Cloudy 10 -12.1 4 -15.7 75 75 SSE 10 17 30.5 1033 10 16.0934 0 0
12:55 am 00:55 Cloudy 11 -11.5 5 -15 76 76 S 14 22 30.5 1033 10 16.0934 0 0
1:15 am 01:15 Cloudy 11 -11.5 5 -15 76 76 SSE 10 17 30.5 1033 10 16.0934 0 0
1:35 am 01:35 Cloudy 12 -11.2 6 -14.5 77 77 SSE 9 15 30.5 1033 10 16.0934 0 0
1:55 am 01:55 Cloudy with Light Snow 12 -11.2 6 -14.5 77 77 SSE 9 15 30.5 1033 10 16.0934 0 0
2:15 am 02:15 Cloudy with Light Snow 12 -11 7 -14 79 79 SSE 8 13 30.5 1033 10 16.0934 0 0
2:35 am 02:35 Cloudy 12 -11 7 -14 79 79 SSE 9 15 30.5 1033 10 16.0934 0 0
2:55 am 02:55 Cloudy with Light Snow 12 -11.2 7 -14 80 80 SE 9 15 30.48 1032 10 16.0934 0 0
3:15 am 03:15 Cloudy with Light Snow 10 -12 6 -14.5 82 82 SSE 10 17 30.48 1032 10 16.0934 0 0
3:35 am 03:35 Cloudy with Light Snow 10 -12.2 6 -14.5 83 83 SSE 9 15 30.48 1032 10 16.0934 0 0
3:55 am 03:55 Cloudy 10 -12.5 6 -14.6 84 84 SSE 8 13 30.48 1032 10 16.0934 0 0
4:15 am 04:15 Cloudy with Light Snow 9 -12.6 6 -14.7 84 84 SSE 7 11 30.5 1033 10 16.0934 0 0
4:35 am 04:35 Cloudy with Light Snow 10 -12.5 6 -14.5 85 85 SE 7 11 30.48 1032 10 16.0934 0 0
4:55 am 04:55 Cloudy with Light Snow 11 -11.9 7 -14 85 85 S 8 13 30.48 1032 7 11.26538 0 0
5:15 am 05:15 Cloudy with Light Snow 11 -11.6 7 -13.8 84 84 S 8 13 30.48 1032 7 11.26538 0 0
5:35 am 05:35 Cloudy with Light Snow 11 -11.6 7 -13.9 83 83 SSE 8 13 30.48 1032 10 16.0934 0 0
5:55 am 05:55 Cloudy with Light Snow 11 -11.5 7 -13.7 84 84 SSE 7 11 30.48 1032 10 16.0934 0 0
6:15 am 06:15 Cloudy 12 -11.2 8 -13.5 83 83 SSE 12 19 30.48 1032 10 16.0934 0 0
6:35 am 06:35 Cloudy with Light Snow 12 -11.2 8 -13.6 83 83 SSE 12 19 30.48 1032 10 16.0934 0 0
6:55 am 06:55 Cloudy 12 -11.1 8 -13.5 83 83 SSE 10 17 30.48 1032 10 16.0934 0 0
7:15 am 07:15 Cloudy 12 -11 8 -13.5 82 82 S 10 17 30.48 1032 10 16.0934 0 0
7:35 am 07:35 Cloudy 12 -11.2 8 -13.5 83 83 SSE 9 15 30.48 1032 10 16.0934 0 0
7:55 am 07:55 Cloudy 12 -11.2 8 -13.5 83 83 S 9 15 30.48 1032 10 16.0934 0 0
8:15 am 08:15 Cloudy 12 -11.1 8 -13.2 85 85 SSE 10 17 30.5 1033 10 16.0934 0 0
8:35 am 08:35 Cloudy 13 -10.7 9 -12.8 85 85 S 9 15 30.48 1032 10 16.0934 0 0
8:55 am 08:55 Cloudy with Light Snow 13 -10.6 9 -13 83 83 S 12 19 30.5 1033 4 6.43736 0 0
9:15 am 09:15 Cloudy with Light Snow 14 -10 10 -12.4 83 83 S 13 20 30.5 1033 4 6.43736 0 0
9:35 am 09:35 Cloudy with Haze 15 -9.6 9 -12.7 78 78 S 13 20 30.5 1033 4 6.43736 0 0
9:55 am 09:55 Cloudy with Light Snow 14 -9.8 9 -12.9 78 78 S 15 24 30.5 1033 5 8.0467 0 0
10:15 am 10:15 Cloudy with Light Snow 15 -9.5 10 -12.4 80 80 S 13 20 30.48 1032 4 6.43736 0 0
10:35 am 10:35 Cloudy with Light Snow 16 -9 10 -12 79 79 S 14 22 30.48 1032 3 4.82802 0 0
10:55 am 10:55 Cloudy with Light Snow 16 -9 11 -11.8 80 80 S 12 19 30.48 1032 2 3.21868 0 0
11:15 am 11:15 Cloudy with Light Snow 17 -8.5 11 -11.4 80 80 S 12 19 30.48 1032 3 4.82802 0 0
11:35 am 11:35 Cloudy with Light Snow 17 -8.1 11 -11.4 77 77 S 12 19 30.45 1031 5 8.0467 0 0
11:55 am 11:55 Mostly Cloudy with Scattered Snow Showers 19 -7.4 12 -10.9 76 76 S 13 20 30.42 1030 5 8.0467 0 0
12:15 pm 12:15 Mostly Cloudy with Scattered Snow Showers 20 -6.8 13 -10.5 75 75 S 10 17 30.42 1030 5 8.0467 0 0
12:35 pm 12:35 Mostly Cloudy with Scattered Snow Showers 20 -6.9 13 -10.7 75 75 S 12 19 30.42 1030 7 11.26538 0 0
1:15 pm 13:15 Mostly Cloudy 22 -5.6 13 -10.5 69 69 S 14 22 30.39 1029 10 16.0934 0 0
1:35 pm 13:35 Mostly Cloudy 22 -5.8 12 -11.2 66 66 SSW 10 17 30.39 1029 10 16.0934 0 0
1:55 pm 13:55 Cloudy 22 -5.4 12 -10.9 66 66 SSW 10 17 30.39 1029 10 16.0934 0 0
2:15 pm 14:15 Cloudy 22 -5.7 12 -10.9 67 67 SSW 13 20 30.36 1028 10 16.0934 0 0
2:35 pm 14:35 Cloudy 22 -5.6 12 -11 66 66 S 9 15 30.36 1028 10 16.0934 0 0
2:55 pm 14:55 Cloudy 22 -5.5 12 -11.1 65 65 SSW 9 15 30.36 1028 10 16.0934 0 0
3:15 pm 15:15 Cloudy 22 -5.5 12 -11.1 65 65 SSW 12 19 30.36 1028 10 16.0934 0 0
3:35 pm 15:35 Cloudy 22 -5.3 12 -10.9 65 65 S 7 11 30.36 1028 10 16.0934 0 0
3:55 pm 15:55 Cloudy 23 -5 12 -10.9 64 64 S 7 11 30.36 1028 10 16.0934 0 0
4:15 pm 16:15 Cloudy with Light Snow 22 -5.3 12 -10.9 65 65 S 6 9 30.36 1028 10 16.0934 0 0
4:35 pm 16:35 Cloudy 23 -5.1 13 -10.5 66 66 SSW 9 15 30.36 1028 10 16.0934 0 0
4:55 pm 16:55 Cloudy 22 -5.3 13 -10.7 66 66 S 9 15 30.36 1028 10 16.0934 0 0
5:15 pm 17:15 Cloudy 22 -5.3 13 -10.6 67 67 S 6 9 30.36 1028 10 16.0934 0 0
5:35 pm 17:35 Cloudy with Light Snow 22 -5.5 13 -10.5 68 68 SSW 9 15 30.36 1028 10 16.0934 0 0
6:15 pm 18:15 Cloudy with Light Snow 21 -6 13 -10.5 71 71 S 6 9 30.36 1028 10 16.0934 0 0
6:35 pm 18:35 Cloudy with Light Snow 21 -6.2 14 -10 75 75 S 7 11 30.36 1028 10 16.0934 0 0
6:55 pm 18:55 Cloudy with Light Snow 21 -6.2 14 -10 75 75 S 9 15 30.36 1028 10 16.0934 0 0
7:15 pm 19:15 Cloudy with Light Snow 20 -6.4 14 -10 76 76 S 6 9 30.36 1028 10 16.0934 0 0
7:35 pm 19:35 Cloudy with Light Snow 20 -6.5 14 -10 76 76 SSE 6 9 30.39 1029 10 16.0934 0 0
7:55 pm 19:55 Cloudy with Light Snow 20 -6.5 14 -9.9 77 77 S 5 7 30.39 1029 10 16.0934 0 0
8:15 pm 20:15 Cloudy with Light Snow 20 -6.5 14 -9.8 78 78 S 5 7 30.39 1029 10 16.0934 0 0
8:35 pm 20:35 Cloudy 20 -6.5 14 -9.8 78 78 SSE 6 9 30.39 1029 10 16.0934 0 0
8:55 pm 20:55 Cloudy with Light Snow 20 -6.6 14 -10 77 77 SSE 6 9 30.39 1029 10 16.0934 0 0
9:15 pm 21:15 Partly Cloudy 19 -7.5 14 -10.2 81 81 SSE 6 9 30.39 1029 10 16.0934 0 0
9:35 pm 21:35 Clear 17 -8.5 13 -10.7 84 84 SSE 7 11 30.42 1030 10 16.0934 0 0
9:55 pm 21:55 Clear 15 -9.5 11 -11.4 86 86 SSE 7 11 30.42 1030 10 16.0934 0 0
10:15 pm 22:15 Clear 14 -9.9 11 -11.5 88 88 SSE 7 11 30.42 1030 10 16.0934 0 0
10:35 pm 22:35 Clear 14 -9.8 12 -11.3 89 89 S 5 7 30.42 1030 10 16.0934 0 0
10:55 pm 22:55 Clear 14 -10 11 -11.5 89 89 SSW 5 7 30.45 1031 10 16.0934 0 0
11:15 pm 23:15 Clear 13 -10.3 11 -11.8 89 89 S 3 6 30.42 1030 10 16.0934 0 0
11:35 pm 23:35 Clear 13 -10.8 10 -12.2 90 90 S 5 7 30.45 1031 10 16.0934 0 0
11:55 pm 23:55 Clear 14 -9.8 12 -11.1 90 90 S 6 9 30.42 1030 10 16.0934 0 0

Powered by AerisWeather